{"data":{"norad_id":56327,"epoch":"2026-05-25T02:52:58.506240Z","epoch_age_seconds":68672,"freshness":"FRESH","line1":"1 56327U 23058L   26145.12012160 -.00005628  00000+0 -38601-3 0  9995","line2":"2 56327  97.4450 145.0634 0002158  77.8117 282.3352 15.05679619169622","mean_motion":15.05679619,"eccentricity":0.0002158,"inclination_deg":97.445,"raan_deg":145.0634,"arg_perigee_deg":77.8117,"mean_anomaly_deg":282.3352,"bstar":-0.00038601,"rev_number":16962,"period_min":95.637875536655,"perigee_km":547.92533531663,"apogee_km":550.91526904825,"semimajor_km":6927.5573021824,"source":"CELESTRAK","updated_at":"2026-05-25T13:38:18.001768Z"}}